994  
ASUS44 KBMX 270610  
RWRAL  
 
ALABAMA REGIONAL WEATHER ROUNDUP  
NATIONAL WEATHER SERVICE BIRMINGHAM AL  
100 AM CDT THU JUL 27 2017  
 
NOTE: "FAIR" INDICATES FEW OR NO CLOUDS BELOW 12,000 FEET  
WITH NO SIGNIFICANT WEATHER AND/OR S TO VISIBILITY
.  
 
THE REMARK "TC" DENOTES TEMPERATURE IN DEGREES CELSIUS.  
 
ALZ001>011-014-016>018-020-270700-  
NORTH ALABAMA  
 
CITY SKY/WX TMP DP RH WIND PRES REMARKS
 
MUSCLE SHOALS CLEAR 76 72 87 CALM 30.04F  
6HR MIN TEMP: 76; 6HR MAX TEMP: 90;  
 
HUNTSVILLE PTCLDY 79 77 94 S3 30.05F  
6HR MIN TEMP: 79; 6HR MAX TEMP: 87;  
 
DECATUR CLEAR 78 77 96 S3 30.05F  
6HR MIN TEMP: 77; 6HR MAX TEMP: 84;  
 
HALEYVILLE NOT AVBL  
GADSDEN CLEAR 76 76 100 W3 30.06F  
6HR MIN TEMP: 75; 6HR MAX TEMP: 88;  
 

 
 
ALZ012-013-022-023-030>036-040>044-270700-  
WEST CENTRAL ALABAMA  
 
CITY SKY/WX TMP DP RH WIND PRES REMARKS
 
TUSCALOOSA PTCLDY 79 79 100 CALM 30.04F  
6HR MIN TEMP: 78; 6HR MAX TEMP: 87;  
 
DEMOPOLIS N/A N/A N/A N/A CALM 30.05S FOG  

 
 
ALZ015-024>026-033>036-041>044-270700-  
CENTRAL ALABAMA  
 
CITY SKY/WX TMP DP RH WIND PRES REMARKS
 
BIRMINGHAM CLEAR 76 74 93 CALM 30.08F  
6HR MIN TEMP: 76; 6HR MAX TEMP: 87;  
 
MONTGOMERY PTCLDY 75 70 84 CALM 30.05S  
6HR MIN TEMP: 75; 6HR MAX TEMP: 84;  
 
SHELBY CO ARPT CLEAR 77 76 96 CALM 30.06F FOG  
6HR MIN TEMP: 76; 6HR MAX TEMP: 84;  
 
MAXWELL AFB CLEAR 75 74 98 S3 30.04F  
6HR MIN TEMP: 75; 6HR MAX TEMP: 84;  
 
GREENVILLE FAIR 73 70 90 CALM 30.05F  
6HR MIN TEMP: 73; 6HR MAX TEMP: 80;  
 
SELMA FAIR 72 68 88 SE5 30.05S  
PRATTVILLE FAIR 74 74 100 CALM 30.04F  
6HR MIN TEMP: 74; 6HR MAX TEMP: 83;  
 
BESSEMER FAIR 76 76 100 CALM 30.07F  
6HR MIN TEMP: 74; 6HR MAX TEMP: 82;  
 
TALLADEGA FAIR 76 75 97 MISG 30.08S  
6HR MIN TEMP: 76; 6HR MAX TEMP: 88;  
 
PELL CITY CLEAR 75 75 100 CALM 30.07S  
MARION NOT AVBL  
SYLACAUGA MOCLDY 74 74 100 CALM 30.07F  
6HR MIN TEMP: 74; 6HR MAX TEMP: 85;  
 

 
 
ALZ019-021-028-029-037-038-045>048-270700-  
EAST CENTRAL ALABAMA  
 
CITY SKY/WX TMP DP RH WIND PRES REMARKS
 
ANNISTON CLEAR 78 75 90 CALM 30.07F  
6HR MIN TEMP: 76; 6HR MAX TEMP: 88;  
 
ALEXANDER CITY CLEAR 75 74 96 CALM 30.08S  
6HR MIN TEMP: 75; 6HR MAX TEMP: 86;  
 
AUBURN CLEAR 76 74 93 CALM 30.08F  
6HR MIN TEMP: 76; 6HR MAX TEMP: 84;  
 

 
 
ALZ051>064-270700-  
SOUTHWEST ALABAMA  
 
CITY SKY/WX TMP DP RH WIND PRES REMARKS
 
MOBILE CLEAR 76 73 91 W3 30.06F  
6HR MIN TEMP: 76; 6HR MAX TEMP: 87;  
 
BROOKLEY FIELD PTCLDY 78 74 87 CALM 30.07S  
6HR MIN TEMP: 77; 6HR MAX TEMP: 88;  
 
EVERGREEN CLEAR 73 71 93 CALM 30.06F  
6HR MIN TEMP: 72; 6HR MAX TEMP: 81;  
 

 
 
ALZ049-050-065>069-270700-  
SOUTHEAST ALABAMA  
 
CITY SKY/WX TMP DP RH WIND PRES REMARKS
 
DOTHAN CLEAR 75 74 96 NW3 30.08F  
6HR MIN TEMP: 75; 6HR MAX TEMP: 81;  
 
OZARK CLEAR 74 71 91 N3 30.05S  
6HR MIN TEMP: 74; 6HR MAX TEMP: 80;  
 
TROY PTCLDY 73 73 100 SE5 30.07F  
6HR MIN TEMP: 73; 6HR MAX TEMP: 80;  
 
EUFAULA FAIR 76 74 93 CALM 30.05S  
6HR MIN TEMP: 76; 6HR MAX TEMP: 83;  
 

 
 
 
CLICK HERE TO GO TO PREVIOUS BULLETINS.

The Nexlab AL Page Main Text Page